Date String (YYYY-MM-DD hh:mm:ss) UTC,Instrument flags,Ambient pressure (hPa),Sample flow (lpm),Bypass flow (lpm),Sample temperature (°C),Ambient temperature (°C),ASC tube jacket temperature (°C),LED temperature (°C),Box temperature (°C),Sample RH (%),Span deviation,Mass concentration (μg/m³),Mass concentration (μg/m³),Mass concentration (μg/m³)
DateTimeUTC,F1_M11,P_M11,Q1_M11,Q2_M11,T1_M11,T2_M11,T3_M11,T4_M11,T5_M11,U1_M11,ZSPAN_M11,X0_M11,X2_M11,X1_M11
2021-11-20 16:00:00,,0827.3,5.00,0.00,26.4,25.6,00.0,35.3,28.2,11.1,0000.0,0010.50,0004.14,0003.25
2021-11-20 16:01:00,,0827.2,5.00,0.00,26.4,25.6,00.0,35.3,28.3,11.0,0000.0,0010.37,0004.12,0003.26
2021-11-20 16:02:00,,0827.2,4.99,0.00,26.4,25.6,00.0,35.3,28.3,10.9,0000.0,0010.38,0004.12,0003.26
2021-11-20 16:03:00,,0827.2,5.01,0.00,26.4,25.6,00.0,35.3,28.3,10.9,0000.0,0009.61,0004.12,0003.27
2021-11-20 16:04:00,,0827.3,4.99,0.00,26.4,25.7,00.0,35.3,28.3,10.9,0000.0,0009.77,0004.14,0003.28
2021-11-20 16:05:00,,0827.3,4.99,0.00,26.4,25.7,00.0,35.3,28.3,10.9,0000.0,0010.31,0004.22,0003.28
2021-11-20 16:06:00,,0827.4,5.00,0.00,26.5,25.7,00.0,35.4,28.3,10.8,0000.0,0011.10,0004.25,0003.29
2021-11-20 16:07:00,,0827.4,5.01,0.00,26.5,25.7,00.0,35.4,28.3,10.8,0000.0,0011.52,0004.22,0003.28
2021-11-20 16:08:00,,0827.4,4.99,0.00,26.5,25.7,00.0,35.4,28.3,10.9,0000.0,0011.60,0004.23,0003.27
2021-11-20 16:09:00,,0827.4,5.01,0.00,26.5,25.7,00.0,35.4,28.3,10.9,0000.0,0012.46,0004.25,0003.28
2021-11-20 16:10:00,,0827.4,4.99,0.00,26.5,25.7,00.0,35.4,28.4,10.9,0000.0,0012.50,0004.28,0003.28
2021-11-20 16:11:00,,0827.4,5.00,0.00,26.5,25.7,00.0,35.4,28.4,10.9,0000.0,0012.41,0004.30,0003.27
2021-11-20 16:12:00,,0827.4,5.00,0.00,26.6,25.7,00.0,35.4,28.4,10.9,0000.0,0012.20,0004.29,0003.26
2021-11-20 16:13:00,,0827.4,5.00,0.00,26.6,25.8,00.0,35.4,28.4,10.9,0000.0,0012.00,0004.28,0003.25
2021-11-20 16:14:00,,0827.4,5.01,0.00,26.6,25.8,00.0,35.5,28.4,10.9,0000.0,0012.05,0004.30,0003.24
2021-11-20 16:15:00,,0827.4,4.99,0.00,26.6,25.8,00.0,35.5,28.5,10.7,0000.0,0011.85,0004.27,0003.22
2021-11-20 16:16:00,,0827.4,4.99,0.00,26.6,25.8,00.0,35.5,28.5,10.7,0000.0,0011.42,0004.20,0003.21
2021-11-20 16:17:00,,0827.4,5.00,0.00,26.6,25.8,00.0,35.5,28.5,10.7,0000.0,0010.57,0004.14,0003.19
2021-11-20 16:18:00,,0827.4,5.01,0.00,26.6,25.8,00.0,35.5,28.5,10.7,0000.0,0010.50,0004.15,0003.19
2021-11-20 16:19:00,,0827.4,4.99,0.00,26.6,25.8,00.0,35.5,28.5,10.7,0000.0,0011.10,0004.15,0003.19
2021-11-20 16:20:00,,0827.4,5.01,0.00,26.6,25.8,00.0,35.5,28.5,10.7,0000.0,0010.60,0004.17,0003.18
2021-11-20 16:21:00,,0827.4,4.99,0.00,26.6,25.8,00.0,35.5,28.5,10.7,0000.0,0011.08,0004.16,0003.18
2021-11-20 16:22:00,,0827.4,5.02,0.00,26.7,25.8,00.0,35.6,28.5,10.7,0000.0,0012.25,0004.16,0003.18
2021-11-20 16:23:00,,0827.4,5.00,0.00,26.7,25.8,00.0,35.6,28.5,10.7,0000.0,0012.86,0004.17,0003.19
2021-11-20 16:24:00,,0827.4,4.99,0.00,26.7,25.8,00.0,35.6,28.5,10.7,0000.0,0013.64,0004.22,0003.19
2021-11-20 16:25:00,,0827.4,5.00,0.00,26.7,25.8,00.0,35.6,28.5,10.8,0000.0,0014.13,0004.24,0003.20
2021-11-20 16:26:00,,0827.4,5.01,0.00,26.7,25.8,00.0,35.6,28.5,10.8,0000.0,0014.25,0004.25,0003.21
2021-11-20 16:27:00,,0827.4,5.00,0.00,26.7,25.8,00.0,35.6,28.5,10.8,0000.0,0014.93,0004.32,0003.22
2021-11-20 16:28:00,,0827.3,4.99,0.00,26.7,25.8,00.0,35.6,28.6,10.9,0000.0,0015.29,0004.38,0003.24
2021-11-20 16:29:00,,0827.3,5.01,0.00,26.7,25.9,00.0,35.6,28.6,10.8,0000.0,0015.18,0004.38,0003.24
2021-11-20 16:30:00,,0827.3,5.01,0.00,26.7,25.9,00.0,35.6,28.6,10.6,0000.0,0014.49,0004.34,0003.24
2021-11-20 16:31:00,,0827.3,4.99,0.00,26.7,25.9,00.0,35.6,28.6,10.6,0000.0,0014.17,0004.25,0003.22
2021-11-20 16:32:00,,0827.4,5.00,0.00,26.8,25.9,00.0,35.7,28.6,10.7,0000.0,0014.21,0004.16,0003.21
2021-11-20 16:33:00,,0827.4,5.01,0.00,26.8,25.9,00.0,35.7,28.6,10.6,0000.0,0012.75,0004.12,0003.21
2021-11-20 16:34:00,,0827.4,5.00,0.00,26.8,25.9,00.0,35.7,28.6,10.7,0000.0,0011.88,0004.07,0003.22
2021-11-20 16:35:00,,0827.4,5.01,0.00,26.8,25.9,00.0,35.7,28.6,10.7,0000.0,0010.97,0004.04,0003.22
2021-11-20 16:36:00,,0827.4,5.00,0.00,26.8,26.0,00.0,35.7,28.6,10.6,0000.0,0010.50,0003.98,0003.22
2021-11-20 16:37:00,,0827.4,4.99,0.00,26.8,26.0,00.0,35.7,28.7,10.7,0000.0,0010.19,0003.98,0003.21
2021-11-20 16:38:00,,0827.4,5.01,0.00,26.8,26.0,00.0,35.7,28.7,10.5,0000.0,0009.54,0003.94,0003.20
2021-11-20 16:39:00,,0827.4,4.99,0.00,26.8,26.0,00.0,35.7,28.7,10.5,0000.0,0009.13,0003.89,0003.20
2021-11-20 16:40:00,,0827.4,4.99,0.00,26.8,26.0,00.0,35.7,28.7,10.5,0000.0,0009.13,0003.90,0003.21
2021-11-20 16:41:00,,0827.4,5.01,0.00,26.8,26.0,00.0,35.8,28.7,10.5,0000.0,0009.05,0003.93,0003.21
2021-11-20 16:42:00,,0827.4,5.00,0.00,26.9,26.0,00.0,35.8,28.7,10.6,0000.0,0008.83,0003.93,0003.22
2021-11-20 16:43:00,,0827.4,4.99,0.00,26.9,26.1,00.0,35.8,28.7,10.5,0000.0,0007.73,0003.93,0003.24
2021-11-20 16:44:00,,0827.4,5.01,0.00,26.9,26.1,00.0,35.8,28.8,10.4,0000.0,0007.96,0003.96,0003.26
2021-11-20 16:45:00,,0827.5,4.99,0.00,26.9,26.1,00.0,35.8,28.8,10.5,0000.0,0008.56,0003.96,0003.27
2021-11-20 16:46:00,,0827.5,4.99,0.00,26.9,26.1,00.0,35.8,28.8,10.4,0000.0,0008.50,0003.95,0003.28
2021-11-20 16:47:00,,0827.5,5.00,0.00,26.9,26.1,00.0,35.8,28.8,10.6,0000.0,0008.44,0003.95,0003.29
2021-11-20 16:48:00,,0827.5,5.01,0.00,27.0,26.2,00.0,35.9,28.8,10.5,0000.0,0008.37,0003.95,0003.30
2021-11-20 16:49:00,,0827.5,4.99,0.00,27.0,26.2,00.0,35.9,28.8,10.3,0000.0,0008.26,0003.93,0003.32
2021-11-20 16:50:00,,0827.5,5.00,0.00,27.0,26.2,00.0,35.9,28.8,10.3,0000.0,0008.17,0003.91,0003.32
2021-11-20 16:51:00,,0827.4,5.00,0.00,27.0,26.2,00.0,35.9,28.9,10.4,0000.0,0008.06,0003.91,0003.33
2021-11-20 16:52:00,,0827.4,5.00,0.00,27.0,26.2,00.0,35.9,28.9,10.3,0000.0,0008.42,0003.91,0003.33
2021-11-20 16:53:00,,0827.4,4.99,0.00,27.0,26.2,00.0,35.9,28.9,10.3,0000.0,0009.00,0003.97,0003.35
2021-11-20 16:54:00,,0827.4,5.01,0.00,27.1,26.2,00.0,35.9,28.9,10.4,0000.0,0009.18,0004.03,0003.35
2021-11-20 16:55:00,,0827.4,5.01,0.00,27.1,26.2,00.0,35.9,28.9,10.3,0000.0,0009.00,0004.02,0003.34
2021-11-20 16:56:00,,0827.4,4.99,0.00,27.1,26.2,00.0,36.0,28.9,10.3,0000.0,0008.71,0004.04,0003.33
2021-11-20 16:57:00,,0827.3,5.01,0.00,27.1,26.3,00.0,36.0,28.9,10.3,0000.0,0009.57,0004.08,0003.35
2021-11-20 16:58:00,,0827.4,4.99,0.00,27.1,26.3,00.0,36.0,29.0,10.3,0000.0,0009.57,0004.09,0003.36
2021-11-20 16:59:00,,0827.4,5.00,0.00,27.1,26.3,00.0,36.0,29.0,10.3,0000.0,0009.63,0004.11,0003.37
